Terminal Aerodrome Forecast
Issued by NWS

Home | Current Version | Previous Version | Text Only | Print | Product List | Glossary On
Versions: 1 2 3 4 5 6 7 8 9 10 11 12 13
000
FTUS42 TJSJ 030522
TAFJSJ
TAF
TJSJ 030522Z 0306/0406 VRB03KT P6SM FEW018
     FM031300 06010KT P6SM FEW030 SCT050
     FM032300 10005KT P6SM SCT025=

USA.gov is the U.S. government's official web portal to all federal, state and local government web resources and services.